Cloud_Cover
100 100 90 100 52 82 100 47 60 4 5 8 100 3 1 50 41 86 70 100 100 100 99 100 100 72 39 4 25 5 5 10 100
96 92 89 5 85 100 100 9 4 37 5 5 57 100 22 5 12 8 12 54 99 100 100 100 100 100 92 51 5 33 13 20 23
100 52 5 37 73 55 100 20 100 76 73 3 3 86 60 5 12 96 5 5 100 100 100 100 100 100 60 69 76 73 100 64 13
100 98 38 73 99 71 92 93 97 1 42 2 0 0 18 4 63 32 51 19 0 93 100 90 100 100 88 40 47 64 87 100 99
100 100 100 100 88 71 100 80 79 90 22 58 30 0 0 7 10 6 5 5 5 5 6 93 22 96 100 45 26 6 79 93 100
100 100 100 86 49 76 90 98 100 100 100 100 100 18 13 64 18 98 35 95 1 5 20 35 5 16 87 8 10 100 71 60 50
100 99 100 96 21 16 68 100 100 100 100 100 100 100 90 22 48 83 2 53 100 63 4 1 37 27 41 5 70 87 68 18 23
100 100 100 100 15 13 5 96 100 100 100 100 84 53 98 90 92 96 41 54 82 100 69 5 3 4 4 74 84 100 100 24 36
100 100 100 100 100 54 33 5 92 100 100 100 90 100 100 100 100 100 89 99 99 100 27 6 5 46 5 34 52 21 98 96 26
100 100 100 100 100 87 69 56 74 99 34 100 90 100 100 88 98 90 72 96 100 100 32 96 100 100 100 64 26 50 29 66 90
100 100 100 100 100 100 100 100 100 100 100 100 100 100 100 89 98 81 92 100 100 92 100 99 100 100 100 100 70 11 16 20 56
100 100 100 100 100 100 100 100 100 100 100 100 100 100 100 80 44 100 88 100 100 100 96 70 100 100 100 100 95 100 99 77 57
100 100 100 100 100 100 100 100 100 100 100 100 100 100 100 100 98 93 94 100 100 100 98 100 100 100 100 100 100 100 96 100 74
100 100 100 100 100 100 100 100 100 100 100 100 100 100 100 100 100 100 92 100 77 100 100 100 100 100 100 100 100 100 100 98 83
100 100 100 100 100 100 100 100 100 100 100 100 100 100 100 100 100 100 100 100 100 100 100 100 100 100 100 100 100 99 100 96 98
100 100 100 100 100 100 100 100 100 100 100 100 100 100 100 100 100 100 100 100 100 100 100 100 100 100 100 99 100 100 100 100 100
100 100 100 100 100 100 100 100 100 100 100 100 100 100 100 100 100 100 100 100 100 100 100 100 100 100 100 100 100 96 100 100 100
100 100 100 100 100 100 100 100 100 100 100 100 100 100 100 100 100 100 100 100 100 100 100 100 100 100 100 100 100 96 100 100 100
100 100 100 100 100 100 100 100 100 100 100 100 100 100 100 100 100 100 100 100 100 100 100 100 100 100 100 100 100 100 100 100 100
100 100 100 100 100 100 100 100 100 100 100 100 100 100 100 100 100 100 100 100 100 100 100 100 100 100 100 100 100 71 100 92 0